ベルナルディ彗星

268P/Bernardi (2024)

English version
Home page
Updated on January 6, 2024

---------------------------------------------------------------------

・ プロフィール

・ 軌道要素

Epoch 2025 Jan. 5.0 TT = JDT 2460680.5
T 2024 Dec. 18.46506 TT                                 MPCW
q   2.4126300            (2000.0)            P               Q
n   0.10015800     Peri.    0.01081     -0.58272281     -0.78249294
a   4.5921101      Node   125.63187     +0.74559079     -0.62217814
e   0.4746141      Incl.   15.66105     +0.32330868     +0.02447754
P   9.84
From 71 observations 2004 Sept. 22-2015 Jan. 19, mean residual 0".2.

・ 光度変化

        m1 = 15.0 + 5 logΔ + 7.5 log r

---------------------------------------------------------------------

軌道要素はM.P.E.C. 2015-B177に掲載されたものです。
光度グラフはComet for Windowsで作成したものです。

---------------------------------------------------------------------

Copyright(C) Seiichi Yoshida (comet@aerith.net). All rights reserved.